When you browse on this site, cookies collect data to enhance your experience and personalize the content and advertising you see.
Visit our Privacy Policy to learn more. By continuing to use the site, you agree to this use of cookies and data.
  • In Austria
  • List of Countries
  • For 7 days
  • Water Temperature
  • Weather Map
  • News
  • Weather Widgets
  • user-avatar
    Login

    Hourly Weather Tlanalapan

    Today, 14 November, Thursday

    Time Temperature Precipitation Wind Pressure Humidity
    00:00 +10°C° 0 mm 2 mps 567 mmHg 80%
    01:00 +10°C° 0 mm 2 mps 566 mmHg 81%
    02:00 +9°C° 0 mm 2 mps 566 mmHg 82%
    03:00 +10°C° 0 mm 1 mps 566 mmHg 84%
    04:00 +10°C° 0 mm 1 mps 566 mmHg 85%
    05:00 +9°C° 0 mm 1 mps 566 mmHg 86%
    06:00 +11°C° 0 mm 1 mps 567 mmHg 80%
    07:00 +12°C° 0 mm 1 mps 568 mmHg 73%
    08:00 +14°C° 0 mm 1 mps 569 mmHg 67%
    09:00 +15°C° 0 mm 1 mps 570 mmHg 60%
    10:00 +18°C° 0 mm 1 mps 570 mmHg 53%
    11:00 +19°C° 0 mm 1 mps 571 mmHg 47%
    12:00 +20°C° 0 mm 1 mps 570 mmHg 47%
    13:00 +20°C° 0 mm 1 mps 570 mmHg 47%
    14:00 +20°C° 0 mm 1 mps 569 mmHg 47%
    15:00 +17°C° 0.1 mm 2 mps 569 mmHg 56%
    16:00 +16°C° 0.1 mm 2 mps 568 mmHg 66%
    17:00 +14°C° 0.1 mm 3 mps 568 mmHg 75%
    18:00 +13°C° 0.2 mm 3 mps 568 mmHg 79%
    19:00 +12°C° 0.2 mm 3 mps 569 mmHg 83%
    20:00 +11°C° 0.2 mm 3 mps 569 mmHg 87%
    21:00 +11°C° 0.1 mm 3 mps 569 mmHg 87%
    22:00 +11°C° 0.1 mm 3 mps 569 mmHg 87%
    23:00 +11°C° 0.1 mm 3 mps 569 mmHg 87%

    Tomorrow, 15 November, Friday

    Time Temperature Precipitation Wind Pressure Humidity
    00:00 +10°C° 0.3 mm 3 mps 569 mmHg 88%
    01:00 +10°C° 0.3 mm 2 mps 568 mmHg 89%
    02:00 +10°C° 0.3 mm 2 mps 568 mmHg 90%
    03:00 +10°C° 0.1 mm 2 mps 568 mmHg 89%
    04:00 +10°C° 0.1 mm 2 mps 569 mmHg 89%
    05:00 +10°C° 0.1 mm 2 mps 569 mmHg 88%
    06:00 +12°C° 0 mm 2 mps 569 mmHg 87%
    07:00 +12°C° 0 mm 2 mps 570 mmHg 86%
    08:00 +12°C° 0 mm 2 mps 570 mmHg 84%
    09:00 +13°C° 0 mm 2 mps 571 mmHg 80%
    10:00 +14°C° 0 mm 2 mps 571 mmHg 76%
    11:00 +14°C° 0 mm 2 mps 571 mmHg 72%
    12:00 +15°C° 0 mm 2 mps 571 mmHg 72%
    13:00 +15°C° 0 mm 2 mps 570 mmHg 71%
    14:00 +15°C° 0 mm 2 mps 569 mmHg 71%
    15:00 +14°C° 0 mm 2 mps 569 mmHg 75%
    16:00 +13°C° 0 mm 2 mps 569 mmHg 79%
    17:00 +12°C° 0 mm 2 mps 569 mmHg 83%
    18:00 +12°C° 0 mm 2 mps 569 mmHg 85%
    19:00 +10°C° 0 mm 2 mps 569 mmHg 87%
    20:00 +10°C° 0 mm 2 mps 569 mmHg 89%
    21:00 +10°C° 0 mm 1 mps 569 mmHg 90%
    22:00 +10°C° 0 mm 1 mps 569 mmHg 90%
    23:00 +10°C° 0 mm 1 mps 568 mmHg 91%

    Day after tomorrow, 16 November, Saturday

    Time Temperature Precipitation Wind Pressure Humidity
    00:00 +9°C° 0 mm 0 mps 568 mmHg 90%
    01:00 +10°C° 0 mm 0 mps 568 mmHg 89%
    02:00 +10°C° 0 mm 0 mps 568 mmHg 88%
    03:00 +9°C° 0 mm 0 mps 568 mmHg 90%
    04:00 +9°C° 0 mm 0 mps 567 mmHg 91%
    05:00 +9°C° 0 mm 0 mps 567 mmHg 92%
    06:00 +10°C° 0 mm 0 mps 568 mmHg 87%
    07:00 +11°C° 0 mm 0 mps 569 mmHg 83%
    08:00 +12°C° 0 mm 0 mps 570 mmHg 78%
    09:00 +15°C° 0 mm 1 mps 570 mmHg 71%
    10:00 +16°C° 0 mm 1 mps 571 mmHg 64%
    11:00 +18°C° 0 mm 2 mps 571 mmHg 57%
    12:00 +18°C° 0.1 mm 2 mps 570 mmHg 55%
    13:00 +19°C° 0.1 mm 2 mps 570 mmHg 53%
    14:00 +19°C° 0.1 mm 2 mps 569 mmHg 50%
    15:00 +18°C° 0.1 mm 2 mps 569 mmHg 59%
    16:00 +16°C° 0.1 mm 2 mps 569 mmHg 67%
    17:00 +15°C° 0.1 mm 2 mps 568 mmHg 75%
    18:00 +14°C° 0.1 mm 2 mps 568 mmHg 78%
    19:00 +14°C° 0.1 mm 2 mps 568 mmHg 82%
    20:00 +13°C° 0.1 mm 1 mps 568 mmHg 85%
    21:00 +13°C° 0 mm 1 mps 568 mmHg 86%
    22:00 +13°C° 0 mm 1 mps 568 mmHg 86%
    23:00 +13°C° 0 mm 1 mps 568 mmHg 86%

    17 November, Sunday

    Time Temperature Precipitation Wind Pressure Humidity
    00:00 +13°C° 0 mm 1 mps 567 mmHg 86%
    01:00 +13°C° 0 mm 1 mps 567 mmHg 87%
    02:00 +13°C° 0 mm 1 mps 567 mmHg 87%
    03:00 +13°C° 0 mm 1 mps 567 mmHg 87%
    04:00 +11°C° 0 mm 0 mps 567 mmHg 88%
    05:00 +11°C° 0 mm 0 mps 567 mmHg 88%
    06:00 +13°C° 0 mm 1 mps 567 mmHg 82%
    07:00 +14°C° 0 mm 1 mps 568 mmHg 76%
    08:00 +15°C° 0 mm 1 mps 569 mmHg 70%
    09:00 +16°C° 0 mm 2 mps 569 mmHg 65%
    10:00 +18°C° 0 mm 2 mps 569 mmHg 60%
    11:00 +19°C° 0 mm 3 mps 569 mmHg 55%
    12:00 +19°C° 0.1 mm 3 mps 569 mmHg 55%
    13:00 +19°C° 0.1 mm 4 mps 568 mmHg 55%
    14:00 +19°C° 0.1 mm 4 mps 568 mmHg 55%
    15:00 +18°C° 0.3 mm 4 mps 567 mmHg 62%
    16:00 +17°C° 0.3 mm 3 mps 567 mmHg 69%
    17:00 +14°C° 0.3 mm 3 mps 567 mmHg 76%
    18:00 +14°C° 0.1 mm 3 mps 567 mmHg 78%
    19:00 +14°C° 0.1 mm 2 mps 567 mmHg 79%
    20:00 +14°C° 0.1 mm 2 mps 567 mmHg 81%
    21:00 +13°C° 0 mm 1 mps 567 mmHg 82%
    22:00 +12°C° 0 mm 1 mps 567 mmHg 82%
    23:00 +12°C° 0 mm 1 mps 566 mmHg 82%

    18 November, Monday

    Time Temperature Precipitation Wind Pressure Humidity
    00:00 +11°C° 0 mm 0 mps 566 mmHg 82%
    01:00 +10°C° 0 mm 0 mps 566 mmHg 82%
    02:00 +10°C° 0 mm 0 mps 565 mmHg 82%
    03:00 +10°C° 0 mm 0 mps 565 mmHg 81%
    04:00 +10°C° 0 mm 0 mps 565 mmHg 81%
    05:00 +10°C° 0 mm 1 mps 565 mmHg 81%
    06:00 +11°C° 0 mm 0 mps 566 mmHg 75%
    07:00 +12°C° 0 mm 0 mps 567 mmHg 69%
    08:00 +14°C° 0 mm 0 mps 568 mmHg 64%
    09:00 +16°C° 0 mm 1 mps 568 mmHg 60%
    10:00 +17°C° 0 mm 2 mps 568 mmHg 56%
    11:00 +18°C° 0 mm 3 mps 569 mmHg 52%
    12:00 +19°C° 0.1 mm 3 mps 568 mmHg 52%
    13:00 +19°C° 0.1 mm 3 mps 568 mmHg 53%
    14:00 +19°C° 0.1 mm 4 mps 567 mmHg 53%
    15:00 +18°C° 0.1 mm 3 mps 567 mmHg 60%
    16:00 +17°C° 0.1 mm 3 mps 567 mmHg 66%
    17:00 +16°C° 0.1 mm 2 mps 566 mmHg 72%
    18:00 +15°C° 0.1 mm 2 mps 566 mmHg 76%
    19:00 +14°C° 0.1 mm 1 mps 566 mmHg 80%
    20:00 +14°C° 0.1 mm 1 mps 567 mmHg 84%
    21:00 +13°C° 0 mm 1 mps 566 mmHg 83%
    22:00 +13°C° 0 mm 1 mps 566 mmHg 83%
    23:00 +11°C° 0 mm 0 mps 566 mmHg 82%

    19 November, Tuesday

    Time Temperature Precipitation Wind Pressure Humidity
    00:00 +11°C° 0 mm 0 mps 565 mmHg 81%
    01:00 +10°C° 0 mm 0 mps 565 mmHg 80%
    02:00 +11°C° 0 mm 1 mps 565 mmHg 79%
    03:00 +11°C° 0 mm 1 mps 565 mmHg 78%
    04:00 +10°C° 0 mm 1 mps 565 mmHg 78%
    05:00 +10°C° 0 mm 1 mps 565 mmHg 77%
    06:00 +11°C° 0 mm 1 mps 566 mmHg 72%
    07:00 +13°C° 0 mm 1 mps 567 mmHg 66%
    08:00 +14°C° 0 mm 1 mps 568 mmHg 61%
    09:00 +15°C° 0 mm 2 mps 568 mmHg 58%
    10:00 +16°C° 0 mm 2 mps 569 mmHg 55%
    11:00 +17°C° 0 mm 3 mps 569 mmHg 52%
    12:00 +17°C° 0 mm 3 mps 568 mmHg 56%
    13:00 +15°C° 0 mm 4 mps 568 mmHg 60%
    14:00 +15°C° 0 mm 5 mps 567 mmHg 64%
    15:00 +14°C° 0 mm 4 mps 567 mmHg 68%
    16:00 +12°C° 0 mm 4 mps 567 mmHg 72%
    17:00 +11°C° 0 mm 3 mps 566 mmHg 76%
    18:00 +10°C° 0 mm 3 mps 566 mmHg 78%
    19:00 +9°C° 0 mm 2 mps 566 mmHg 79%
    20:00 +9°C° 0 mm 2 mps 566 mmHg 81%
    21:00 +9°C° 0 mm 1 mps 566 mmHg 80%
    22:00 +9°C° 0 mm 1 mps 566 mmHg 79%
    23:00 +9°C° 0 mm 1 mps 566 mmHg 77%
    Show more